Probability
3 3 2 1 0 0 0 0 0 0 0 0 0 0 0 0 0 0 0 0 0 0 0 0 0 0 0 0 0 0 0 0 0 0 0 0 0 0 0 0 0 0 0
3 2 2 1 0 0 0 0 0 0 0 0 0 0 0 0 0 0 0 0 0 0 0 0 0 0 0 0 0 0 0 0 0 0 0 0 0 0 0 0 0 0 0
3 3 3 1 0 0 0 0 0 0 0 0 0 0 0 0 0 0 0 0 0 0 0 0 0 0 0 0 0 0 0 0 0 0 0 0 0 0 0 0 0 0 0
4 5 4 3 2 1 0 0 0 0 0 0 0 0 0 0 0 0 0 0 0 0 0 0 0 0 0 0 0 0 0 0 0 0 0 0 0 0 0 0 0 0 0
4 5 5 5 4 3 1 1 1 1 0 0 0 0 0 0 0 0 0 0 0 0 0 0 0 0 0 0 0 0 0 0 0 0 0 0 0 0 0 0 0 0 0
2 3 5 6 6 5 3 2 2 2 1 1 1 1 0 0 0 0 0 0 0 0 0 0 0 0 0 0 0 0 0 0 0 0 0 0 0 0 0 0 0 0 0
1 1 3 6 5 5 4 3 3 4 3 2 2 1 0 0 0 0 0 0 0 0 0 0 0 0 0 0 0 0 0 0 0 0 0 0 0 0 0 0 0 0 0
0 0 2 4 5 5 3 2 3 4 4 3 2 1 0 0 0 0 0 0 0 0 0 0 0 0 0 0 0 0 0 0 0 0 0 0 0 0 0 0 0 0 0
0 0 1 3 5 4 2 1 3 4 3 3 3 2 0 0 0 0 0 0 0 0 0 0 0 0 0 0 0 0 0 0 0 0 0 0 0 0 0 0 0 0 0
0 0 0 1 3 3 1 1 2 3 3 3 3 1 0 0 0 0 0 0 0 0 0 0 0 0 0 0 0 0 0 0 0 0 0 0 0 0 0 0 0 0 0
0 0 0 1 2 2 1 1 2 3 3 3 2 1 0 0 0 0 0 0 0 0 0 0 0 0 0 0 0 0 0 0 0 0 0 0 0 0 0 0 0 0 0
0 0 1 2 2 1 0 1 2 2 2 2 1 0 0 0 0 0 0 0 0 0 0 0 0 0 0 0 0 0 0 0 0 0 0 0 0 0 0 0 0 0 0
0 0 1 2 2 1 0 0 1 1 1 1 0 0 0 0 0 0 0 0 0 0 0 0 0 0 0 0 0 0 0 0 0 0 0 0 0 0 0 0 0 0 0
0 0 1 2 1 0 0 0 0 0 0 0 0 0 0 0 0 0 0 0 0 0 0 0 0 0 0 0 0 0 0 0 0 0 0 0 0 0 0 0 0 0 0
0 0 1 1 0 0 0 0 0 0 0 0 0 0 0 0 0 0 0 0 0 0 0 0 0 0 0 0 0 0 0 0 0 0 0 0 0 0 0 0 0 0 0
0 0 0 0 0 0 0 0 0 0 0 0 0 0 0 0 0 0 0 0 0 0 0 0 0 0 0 0 0 0 0 0 0 0 0 0 0 0 0 0 0 0 0
0 0 0 0 0 0 0 0 0 0 0 0 0 0 0 0 0 0 0 0 0 0 0 0 0 0 0 0 0 0 0 0 0 0 0 0 0 0 0 0 0 0 0
0 0 0 0 0 0 0 0 0 0 0 0 0 0 0 0 0 0 0 0 0 0 0 0 0 0 0 0 0 0 0 0 0 0 0 0 0 0 0 0 0 0 0
0 0 0 0 0 0 0 0 0 0 0 0 0 0 0 0 0 0 0 0 0 0 0 0 0 0 0 0 0 0 0 0 0 0 0 0 0 0 0 0 0 0 0
0 0 0 0 0 0 0 0 0 0 0 0 0 0 0 0 0 0 0 0 0 0 0 0 0 0 0 0 0 0 0 0 0 0 0 0 0 0 0 0 0 0 0
0 0 0 0 0 0 0 0 0 0 0 0 0 0 0 0 0 0 0 0 0 0 0 0 0 0 0 0 0 0 0 0 0 0 0 0 0 0 0 0 0 0 0
0 0 0 0 0 0 0 0 0 0 0 0 0 0 0 0 0 0 0 0 0 0 0 0 0 0 0 0 0 0 0 0 0 0 0 0 0 0 0 0 0 0 0
0 0 0 0 0 0 0 0 0 0 0 0 0 0 0 0 0 0 0 0 0 0 0 0 0 0 0 0 0 0 0 0 0 0 0 0 0 0 0 0 0 0 0
0 0 0 0 0 0 0 0 0 0 0 0 0 0 0 0 0 0 0 0 0 0 0 0 0 0 0 0 0 0 0 0 0 0 0 0 0 0 0 0 0 0 0
0 0 0 0 0 0 0 0 0 0 0 0 0 0 0 0 0 0 0 0 0 0 0 0 0 0 0 0 0 0 0 0 0 0 0 0 0 0 0 0 0 0 0
0 0 0 0 0 0 0 0 0 0 0 0 0 0 0 0 0 0 0 0 0 0 0 0 0 0 0 0 0 0 0 0 0 0 0 0 0 0 0 0 0 0 0
Wind_Speed
13 14 14 15 16 16 16 17 16 16 16 16 16 16 16 16 15 14 13 13 13 12 10 11 11 9 7 6 5 5 5 5 7 5 3 2 3 4 3 3 4 5 4
11 12 14 15 15 16 16 17 16 16 16 16 16 16 16 15 15 15 14 14 14 13 12 11 11 8 9 7 6 6 6 6 6 7 4 3 4 3 4 4 4 4 5
9 11 12 14 15 16 16 16 16 16 15 15 15 16 15 15 15 15 14 14 13 13 12 12 11 10 10 7 7 6 5 4 5 5 4 2 2 2 4 4 5 4 5
7 9 11 13 14 15 15 15 15 16 15 15 15 15 15 14 14 14 13 13 13 12 11 11 11 11 10 9 7 7 5 5 4 4 3 2 2 2 3 3 4 4 5
7 8 10 11 12 12 13 13 14 14 15 14 14 13 13 12 12 14 13 12 12 11 10 9 9 9 9 7 5 6 6 4 3 3 3 2 2 2 2 2 4 5 5
5 7 8 9 9 10 11 11 12 13 13 14 14 13 13 10 13 16 13 12 11 10 9 9 8 9 8 8 7 7 6 6 5 4 3 3 3 2 2 2 3 4 4
5 6 6 7 8 9 9 10 11 12 13 13 13 13 13 13 15 17 16 11 10 10 10 8 6 6 8 7 7 6 5 3 4 4 4 3 3 2 2 3 3 4 5
5 5 5 6 7 8 9 10 11 10 11 12 12 13 12 12 16 17 17 12 10 9 9 9 8 8 7 8 7 5 4 3 3 2 2 1 1 1 1 2 3 4 4
5 5 5 6 7 7 9 10 10 10 10 11 11 12 12 12 16 17 16 10 8 8 8 8 8 8 11 11 8 7 5 3 4 4 3 2 2 1 1 0 1 2 3
6 6 6 6 7 8 9 9 9 9 9 9 9 10 11 11 15 18 17 8 8 7 6 7 9 9 13 13 9 8 6 5 4 4 3 3 2 2 1 0 1 1 2
6 6 6 6 7 8 7 7 8 8 8 9 9 8 9 10 14 18 17 9 8 8 7 6 6 12 13 13 9 6 7 6 5 4 3 2 1 1 1 1 1 1 2
6 6 6 6 5 5 7 7 7 8 9 9 8 8 6 8 10 14 17 13 11 8 7 6 7 13 13 12 8 8 11 8 4 3 3 2 1 1 0 1 1 2 2
6 6 5 5 5 6 6 7 7 8 7 7 7 7 6 6 8 13 15 14 12 7 6 9 12 14 13 9 10 12 9 5 4 3 3 2 1 1 1 1 1 1 2
6 6 4 4 5 5 5 5 6 7 7 7 7 7 7 6 7 8 8 9 10 8 8 11 13 12 9 9 9 7 4 3 4 3 3 2 2 1 1 0 1 2 2
6 5 4 4 4 5 4 4 5 6 6 7 7 7 8 8 8 11 9 8 8 8 9 7 6 6 6 5 4 4 4 4 3 3 3 3 2 1 1 1 1 1 2
5 4 3 3 3 3 3 2 2 4 5 6 6 7 5 7 12 13 13 13 15 16 10 7 7 6 6 6 6 5 4 4 3 3 3 3 2 2 1 0 1 1 2
5 4 3 3 3 3 3 4 3 3 5 7 8 9 9 12 14 14 15 15 16 15 7 7 7 7 6 6 6 5 5 4 4 4 3 3 2 2 1 1 0 1 2
5 4 4 3 3 3 4 4 4 5 5 4 5 9 12 14 15 16 17 14 9 7 5 7 7 7 6 6 6 5 5 5 4 4 3 3 3 2 2 1 1 1 2
4 3 3 3 3 3 3 4 4 4 4 4 4 6 11 13 14 15 14 8 8 7 6 6 6 6 6 6 6 5 5 5 5 4 4 3 3 3 2 1 1 1 1
4 4 4 3 3 4 4 4 4 5 5 5 5 6 7 7 7 7 5 5 6 6 6 6 6 6 6 6 6 6 5 5 5 4 4 3 3 2 2 2 1 1 1
3 3 4 3 3 4 4 4 5 5 5 5 4 5 8 6 6 6 5 5 5 6 6 6 6 6 6 6 6 6 7 5 5 4 4 3 3 2 2 2 1 1 1
3 3 3 3 3 3 4 4 5 5 5 6 5 6 8 4 4 5 4 4 4 4 5 6 6 5 6 6 7 7 6 6 6 5 4 4 3 3 2 2 1 1 0
3 3 3 3 3 5 4 4 5 5 5 5 5 5 5 4 4 4 5 5 5 5 5 5 6 5 5 5 5 6 6 6 6 6 6 5 4 3 3 2 2 1 0
3 3 3 3 3 4 4 5 5 5 5 5 5 5 5 4 4 5 5 5 5 5 5 5 5 7 8 6 5 5 4 5 6 6 7 6 5 4 3 2 2 1 1
3 3 3 3 4 4 4 5 5 5 5 5 5 5 5 5 5 5 5 5 6 5 6 6 5 7 9 9 7 6 9 11 9 6 6 5 5 4 4 3 2 2 1
3 3 3 3 3 4 4 5 5 5 5 5 5 5 5 5 5 5 5 5 5 5 6 5 7 8 9 8 9 12 13 13 12 11 6 5 6 5 4 3 3 3 2
Wind_Direction
213 209 209 209 207 206 206 207 205 204 201 201 200 200 200 201 200 202 205 204 207 208 205 211 214 213 211 211 214 218 224 229 251 265 262 264 263 274 281 289 299 296 295
216 212 211 208 207 207 207 207 206 205 203 201 200 200 200 200 199 201 203 204 206 208 207 209 213 209 212 211 211 216 220 223 239 259 261 258 263 280 295 297 302 300 302
224 217 215 209 207 207 208 207 204 203 203 200 200 200 199 199 199 201 202 204 207 209 207 207 209 207 212 211 211 214 216 217 227 245 261 267 273 292 295 295 300 304 307
230 221 219 213 209 209 208 206 204 200 199 199 200 201 199 198 198 198 200 202 205 207 207 207 207 207 211 210 208 211 207 204 214 230 250 262 274 294 294 301 301 307 305
239 226 224 219 212 210 209 205 202 200 198 196 197 199 197 196 197 195 196 198 199 201 202 204 205 203 204 202 195 197 192 195 197 215 234 249 255 277 288 301 297 306 300
253 235 228 220 212 207 206 205 199 198 196 193 194 196 196 196 188 187 190 191 194 194 195 198 197 195 192 187 184 182 184 191 197 204 223 238 253 265 282 290 298 310 300
260 245 234 223 213 209 203 201 198 196 193 193 194 194 196 195 182 180 182 186 189 192 192 191 186 181 180 182 174 166 170 175 192 202 216 229 244 251 260 274 288 299 297
261 253 240 225 215 208 203 202 199 195 194 193 194 194 194 191 179 178 176 186 188 190 190 187 182 180 178 170 162 159 164 170 183 200 210 215 225 232 257 274 288 296 297
261 255 245 228 216 207 203 202 199 193 192 193 192 190 192 187 176 174 172 185 186 186 184 181 178 179 168 159 157 156 150 133 110 116 109 102 94 87 65 76 336 318 303
276 266 251 230 219 210 206 202 197 194 192 187 189 189 189 186 175 172 173 178 177 174 174 174 177 175 165 163 169 166 164 161 145 136 129 121 114 102 98 337 278 296 310
285 276 255 232 223 214 205 200 194 188 185 184 181 184 187 183 173 173 174 178 173 170 170 172 173 168 166 166 168 171 164 153 149 146 139 130 113 98 62 2 337 286 278
282 273 253 233 220 211 200 196 190 183 182 180 176 176 180 176 174 176 176 176 168 169 170 168 163 160 160 159 160 150 143 141 139 142 145 151 152 138 40 342 338 317 295
282 269 253 236 216 205 197 191 185 182 181 177 176 176 175 172 169 167 169 168 162 158 156 154 150 150 149 151 150 147 146 148 149 154 164 167 148 127 86 25 6 354 326
278 267 247 226 211 201 193 189 186 185 180 176 178 175 170 169 167 161 159 156 149 142 138 140 138 138 137 139 144 149 155 157 159 161 154 136 125 122 107 22 336 336 326
278 264 244 224 209 202 196 192 194 197 189 182 182 174 172 178 173 160 158 159 157 150 139 134 138 142 148 148 145 144 145 147 148 143 142 136 134 125 92 31 347 324 317
278 268 243 217 204 196 183 167 156 175 164 170 171 169 169 160 155 157 154 152 149 147 143 151 156 159 161 161 160 155 154 159 158 152 148 148 153 153 135 55 342 313 314
270 269 257 221 199 187 184 175 157 117 126 144 151 155 157 155 155 157 152 149 152 151 150 160 163 165 164 164 163 163 166 162 156 154 153 152 151 150 144 152 301 316 320
273 268 258 228 204 189 183 177 168 163 156 143 142 147 150 153 154 153 148 142 152 162 164 164 166 165 163 163 163 161 157 154 153 156 154 154 157 160 163 180 221 298 312
270 261 248 222 205 187 175 169 162 160 157 150 141 141 144 146 149 153 153 158 165 169 167 166 164 161 159 160 160 159 159 158 157 158 160 162 166 166 171 185 213 272 307
263 263 248 217 196 181 173 168 164 160 156 157 159 154 148 147 154 159 164 162 163 165 164 162 159 157 156 156 156 156 155 154 156 159 161 165 167 164 165 172 189 234 280
259 253 234 213 195 181 172 168 166 163 160 160 161 163 163 161 163 165 167 166 165 164 162 158 155 157 158 155 156 157 157 156 159 162 163 163 164 160 157 161 174 211 286
251 241 224 211 193 178 169 165 164 161 158 153 149 148 151 151 157 160 158 155 154 154 155 154 155 160 162 162 162 160 161 160 161 162 161 159 160 155 149 148 155 164 193
244 228 215 200 189 173 167 166 164 160 157 153 151 153 156 157 155 154 152 152 151 150 149 151 152 156 157 155 159 162 165 167 166 163 160 159 158 155 152 152 153 156 155
227 216 206 190 186 180 171 166 161 158 155 153 154 156 157 156 152 150 152 150 148 148 150 150 154 157 154 151 149 149 147 146 148 155 158 156 154 152 148 148 152 146 148
214 207 200 190 185 179 169 162 158 158 157 155 155 153 152 151 149 150 151 149 149 150 151 149 149 153 155 153 150 148 147 146 144 144 149 150 146 144 144 144 143 133 118
211 202 195 187 184 178 171 165 163 161 160 158 157 155 154 153 153 154 154 151 150 150 149 150 152 152 151 151 151 149 148 149 148 146 145 145 143 142 143 141 140 136 128